Weather History for Gonzales, LA

Change the Weather History Date:

Saturday, August 3, 2013

  Actual Average (KBTR) Record (KBTR)
Temperature  
Mean Temperature 83 °F 83 °F  
Max Temperature 93 °F 93 °F 99 °F (1947)
Min Temperature 73 °F 74 °F 67 °F (1965)
Degree Days  
Heating Degree Days 0 0  
Month to date heating degree days 0  
Since 1 June heating degree days 0  
Since 1 July heating degree days 0  
Cooling Degree Days 18 18  
Month to date cooling degree days 54  
Year to date cooling degree days 1659  
Since 1 June cooling degree days 1094  
Growing Degree Days 33 (Base 50)    
Moisture  
Dew Point 75 °F    
Average Humidity 79    
Maximum Humidity 98    
Minimum Humidity 51    
Precipitation  
Precipitation 0.00 in 0.19 in 3.45 in (1944)
Month to date precipitation 0.56  
Year to date precipitation 36.45  
Snow  
Snow 0.00 in - - ()
Month to date snowfall  
Since 1 June snowfall  
Since 1 July snowfall  
Snow Depth -    
Sea Level Pressure  
Sea Level Pressure 30.02 in    
Wind  
Wind Speed 1 mph (SW)    
Max Wind Speed 8 mph    
Max Gust Speed -    
Visibility 9 miles    
Events      
T = Trace of Precipitation, MM = Missing Value Source: NWS Daily Summary

Daily Weather History Graph

Daily Weather History Graph

Search for Another Location

Airport:

Trip Planner

Search our weather history database for the weather conditions in past years. The results will help you decide how hot, cold, wet, or windy it might be!

Date:

Astronomy

Aug. 03, 2013 Rise Set
Actual Time 6:23 AM CDT 7:55 PM CDT
Civil Twilight 5:57 AM CDT 8:21 PM CDT
Nautical Twilight 5:27 AM CDT 8:52 PM CDT
Astronomical Twilight 4:54 AM CDT 9:24 PM CDT
Moon 3:36 AM CDT (8/3) 5:36 PM CDT (8/3)
Length of Visible Light 14h 23m
Length of Day
13h 31m
Waning Crescent, 9% of the Moon is Illuminated
Aug 3
Waning Crescent
Aug 6
New
Aug 14
First Quarter
Aug 20
Full
Aug 28
Last Quarter

Hourly Weather History & Observations

Time (CDT) Temp. Heat Index Dew Point Humidity Pressure Visibility Wind Dir Wind Speed Gust Speed Precip Events Conditions
12:15 AM 78.1 °F - 76.1 °F 94% 30.02 in 10.0 mi Calm Calm - N/A   Clear
12:35 AM 77.5 °F - 75.4 °F 93% 30.01 in 10.0 mi Calm Calm - N/A   Clear
12:55 AM 77.9 °F - 75.6 °F 92% 30.01 in 10.0 mi Calm Calm - N/A   Clear
1:15 AM 77.4 °F - 75.6 °F 94% 30.01 in 7.0 mi Calm Calm - N/A   Clear
1:35 AM 77.0 °F - 74.7 °F 92% 30.00 in 10.0 mi Calm Calm - N/A   Clear
1:55 AM 77.2 °F - 74.7 °F 92% 30.00 in 10.0 mi Calm Calm - N/A   Clear
2:15 AM 76.5 °F - 74.7 °F 94% 30.00 in 10.0 mi Calm Calm - N/A   Clear
2:35 AM 76.3 °F - 74.5 °F 94% 29.99 in 7.0 mi Calm Calm - N/A   Clear
2:55 AM 75.6 °F - 74.3 °F 96% 29.99 in 7.0 mi Calm Calm - N/A   Clear
3:15 AM 75.4 °F - 74.5 °F 97% 29.99 in 7.0 mi Calm Calm - N/A   Clear
3:35 AM 75.2 °F - 74.3 °F 97% 29.99 in 7.0 mi Calm Calm - N/A   Clear
3:55 AM 75.2 °F - 73.8 °F 95% 29.99 in 7.0 mi Calm Calm - N/A   Clear
4:15 AM 74.3 °F - 73.4 °F 97% 29.99 in 5.0 mi Calm Calm - N/A   Clear
4:35 AM 74.5 °F - 73.8 °F 98% 29.99 in 5.0 mi Calm Calm - N/A   Clear
4:55 AM 73.8 °F - 73.2 °F 98% 30.00 in 4.0 mi Calm Calm - N/A   Clear
5:15 AM 74.3 °F - 73.6 °F 98% 30.00 in 7.0 mi Calm Calm - N/A   Clear
5:35 AM 74.7 °F - 73.6 °F 96% 29.99 in 7.0 mi Calm Calm - N/A   Clear
5:55 AM 73.8 °F - 73.2 °F 98% 30.00 in 5.0 mi Calm Calm - N/A   Clear
6:15 AM 73.6 °F - 73.0 °F 98% 30.00 in 5.0 mi Calm Calm - N/A   Clear
6:35 AM 73.9 °F - 73.2 °F 98% 30.00 in 7.0 mi Calm Calm - N/A   Clear
6:55 AM 74.3 °F - 73.0 °F 96% 30.01 in 7.0 mi Calm Calm - N/A   Clear
7:15 AM 74.7 °F - 73.4 °F 96% 30.01 in 7.0 mi Calm Calm - N/A   Clear
7:35 AM 76.6 °F - 75.0 °F 95% 30.01 in 10.0 mi Calm Calm - N/A   Scattered Clouds
7:55 AM 78.4 °F - 76.3 °F 93% 30.02 in 10.0 mi Calm Calm - N/A   Clear
8:15 AM 80.4 °F 86.6 °F 77.0 °F 89% 30.03 in 10.0 mi Calm Calm - N/A   Clear
8:35 AM 82.0 °F 90.8 °F 77.9 °F 87% 30.03 in 7.0 mi Calm Calm - N/A   Clear
8:55 AM 83.5 °F 93.6 °F 77.9 °F 83% 30.03 in 7.0 mi Calm Calm - N/A   Clear
9:15 AM 84.9 °F 97.0 °F 78.6 °F 81% 30.03 in 10.0 mi Calm Calm - N/A   Scattered Clouds
9:35 AM 85.8 °F 97.8 °F 77.9 °F 77% 30.04 in 10.0 mi WSW 4.6 mph - N/A   Scattered Clouds
9:55 AM 86.4 °F 98.3 °F 77.5 °F 75% 30.05 in 10.0 mi WNW 5.8 mph - N/A   Scattered Clouds
10:15 AM 86.4 °F 97.4 °F 76.8 °F 73% 30.05 in 10.0 mi WNW 3.5 mph - N/A   Mostly Cloudy
10:35 AM 86.7 °F 97.3 °F 76.3 °F 71% 30.07 in 10.0 mi NW 3.5 mph - N/A   Scattered Clouds
10:55 AM 86.4 °F 96.9 °F 76.5 °F 72% 30.07 in 10.0 mi Calm Calm - N/A   Mostly Cloudy
11:15 AM 88.7 °F 100.4 °F 76.5 °F 67% 30.07 in 10.0 mi Calm Calm - N/A   Scattered Clouds
11:35 AM 88.2 °F 98.0 °F 75.0 °F 65% 30.07 in 10.0 mi Calm Calm - N/A   Scattered Clouds
11:55 AM 88.7 °F 98.7 °F 75.2 °F 64% 30.06 in 10.0 mi West 4.6 mph - N/A   Mostly Cloudy
12:15 PM 89.6 °F 99.3 °F 74.7 °F 61% 30.06 in 10.0 mi WSW 4.6 mph - N/A   Scattered Clouds
12:35 PM 90.3 °F 100.4 °F 74.7 °F 60% 30.05 in 10.0 mi WSW 3.5 mph - N/A   Clear
12:55 PM 90.5 °F 101.5 °F 75.4 °F 61% 30.05 in 10.0 mi Calm Calm - N/A   Scattered Clouds
1:15 PM 91.4 °F 100.7 °F 73.9 °F 56% 30.04 in 10.0 mi SSW 3.5 mph - N/A   Scattered Clouds
1:35 PM 92.3 °F 102.2 °F 73.8 °F 55% 30.04 in 10.0 mi Calm Calm - N/A   Clear
1:55 PM 92.1 °F 102.4 °F 74.1 °F 56% 30.04 in 10.0 mi Calm Calm - N/A   Scattered Clouds
2:15 PM 91.4 °F 100.1 °F 73.0 °F 55% 30.03 in 10.0 mi Calm Calm - N/A   Mostly Cloudy
2:35 PM 93.4 °F 103.4 °F 73.8 °F 53% 30.03 in 10.0 mi WNW 3.5 mph - N/A   Scattered Clouds
2:55 PM 93.0 °F 101.3 °F 72.3 °F 51% 30.02 in 10.0 mi NNW 5.8 mph - N/A   Scattered Clouds
3:15 PM 92.1 °F 100.5 °F 72.5 °F 53% 30.02 in 10.0 mi Calm Calm - N/A   Scattered Clouds
3:35 PM 92.5 °F 101.3 °F 72.9 °F 53% 30.00 in 10.0 mi NW 3.5 mph - N/A   Scattered Clouds
3:55 PM 91.8 °F 100.9 °F 73.8 °F 55% 30.01 in 10.0 mi Calm Calm - N/A   Scattered Clouds
4:15 PM 93.0 °F 104.6 °F 75.0 °F 56% 30.00 in 10.0 mi Calm Calm - N/A   Scattered Clouds
4:35 PM 92.7 °F 103.7 °F 74.7 °F 56% 30.00 in 10.0 mi WSW 3.5 mph - N/A   Clear
4:55 PM 92.1 °F 101.7 °F 73.9 °F 55% 30.00 in 10.0 mi Calm Calm - N/A   Clear
5:15 PM 91.6 °F 100.5 °F 73.4 °F 55% 30.00 in 10.0 mi Calm Calm - N/A   Mostly Cloudy
5:35 PM 89.1 °F 101.9 °F 77.2 °F 68% 30.00 in 10.0 mi SSE 8.1 mph - N/A   Mostly Cloudy
5:55 PM 88.7 °F 102.8 °F 78.1 °F 71% 30.00 in 10.0 mi South 3.5 mph - N/A   Overcast
6:15 PM 87.8 °F 101.9 °F 78.4 °F 74% 30.00 in 10.0 mi SSW 4.6 mph - N/A   Mostly Cloudy
6:35 PM 86.7 °F 97.3 °F 76.3 °F 71% 30.00 in 10.0 mi SSE 8.1 mph - N/A   Scattered Clouds
6:55 PM 85.5 °F 94.2 °F 75.2 °F 71% 30.01 in 10.0 mi SSE 6.9 mph - N/A   Scattered Clouds
7:15 PM 84.6 °F 92.4 °F 74.5 °F 72% 30.02 in 10.0 mi South 5.8 mph - N/A   Clear
7:35 PM 83.8 °F 90.8 °F 73.9 °F 72% 30.03 in 10.0 mi SSE 4.6 mph - N/A   Clear
7:55 PM 83.3 °F 89.9 °F 73.8 °F 73% 30.03 in 10.0 mi SSW 4.6 mph - N/A   Clear
8:15 PM 81.5 °F 87.6 °F 74.7 °F 80% 30.03 in 10.0 mi Calm Calm - N/A   Clear
8:35 PM 81.3 °F 87.4 °F 75.0 °F 81% 30.03 in 10.0 mi Calm Calm - N/A   Clear
8:55 PM 81.5 °F 87.8 °F 75.2 °F 81% 30.04 in 10.0 mi Calm Calm - N/A   Clear
9:15 PM 80.2 °F 85.7 °F 75.6 °F 86% 30.04 in 10.0 mi Calm Calm - N/A   Clear
9:35 PM 80.2 °F 85.5 °F 75.4 °F 85% 30.05 in 10.0 mi Calm Calm - N/A   Clear
9:55 PM 80.4 °F 86.0 °F 75.4 °F 85% 30.05 in 10.0 mi Calm Calm - N/A   Clear
10:15 PM 79.2 °F - 75.7 °F 89% 30.06 in 10.0 mi Calm Calm - N/A   Clear
10:35 PM 79.7 °F - 75.4 °F 87% 30.06 in 10.0 mi Calm Calm - N/A   Clear
10:55 PM 79.9 °F - 75.2 °F 86% 30.06 in 10.0 mi Calm Calm - N/A   Clear
11:15 PM 78.4 °F - 75.6 °F 91% 30.06 in 10.0 mi Calm Calm - N/A   Clear
11:35 PM 78.8 °F - 75.4 °F 89% 30.06 in 10.0 mi Calm Calm - N/A   Clear
11:55 PM 78.8 °F - 75.2 °F 89% 30.06 in 10.0 mi Calm Calm - N/A   Clear